Theta_e
312 314 322 328 327 327 327 328 329 326 323 326 327 327 325 319 325 327 328 330 329 330 330 329 328 328 328 328 327 328 328 328 328 326 325 323 322 322 319 318 317 314 312 308
312 315 321 326 326 326 327 328 327 323 323 326 327 328 326 325 321 324 325 327 328 329 329 329 328 327 327 328 328 328 327 328 328 325 323 322 321 319 318 316 314 314 308 304
314 313 314 325 326 327 327 328 325 327 322 321 324 330 328 326 320 318 320 324 325 327 327 328 329 329 327 327 328 328 328 326 326 324 322 322 320 318 316 317 315 310 303 301
314 313 316 324 327 326 328 326 326 324 327 331 325 332 329 327 325 318 318 317 320 322 325 326 327 328 328 328 327 328 326 325 324 322 322 323 319 318 317 316 312 303 300 297
317 318 318 321 325 324 326 323 324 324 327 327 325 330 327 324 327 325 319 318 318 320 322 325 326 327 328 328 328 327 325 323 323 323 323 320 319 317 314 307 302 299 296 295
314 312 314 319 322 322 321 320 320 320 323 328 327 328 329 327 325 324 320 318 317 317 318 322 325 326 327 327 327 326 324 324 324 322 316 313 310 308 305 301 298 296 295 295
315 314 312 312 321 321 323 324 324 326 326 330 320 327 327 324 320 321 322 320 317 315 316 319 323 324 326 327 327 326 325 324 320 312 307 304 303 301 299 297 295 295 295 295
321 319 311 311 316 322 324 325 328 328 328 326 316 326 326 318 314 314 316 316 315 314 314 317 320 323 325 326 326 325 324 316 308 304 302 301 299 298 296 295 295 295 295 296
319 315 307 311 312 315 318 324 316 318 311 322 323 320 317 310 311 311 312 312 312 312 313 316 319 321 322 323 323 318 312 305 303 301 299 298 297 295 295 295 295 295 295 296
313 316 308 311 312 312 316 313 321 318 328 328 322 317 323 313 309 309 311 311 312 312 312 313 315 317 319 317 314 308 304 302 300 299 297 296 295 295 295 295 295 295 295 296
313 316 312 312 313 314 313 315 314 317 320 327 326 325 312 309 308 308 308 310 311 311 311 312 313 314 314 310 307 306 302 300 298 297 296 295 295 295 295 295 295 295 295 296
312 313 316 312 307 308 312 315 316 326 321 316 316 323 307 308 309 308 307 308 310 310 310 311 312 312 310 306 304 302 300 298 297 296 295 295 295 295 295 295 295 295 295 296
311 313 316 314 311 310 313 312 314 310 311 316 319 321 306 308 309 310 309 309 309 308 308 309 311 309 306 304 302 301 298 297 297 296 295 295 294 294 294 295 295 295 296 296
306 310 313 318 314 313 314 314 314 315 315 316 317 319 313 309 308 310 309 308 308 307 307 309 309 307 305 303 301 299 298 298 297 296 295 294 294 294 294 294 294 295 296 295
306 310 306 306 306 308 310 311 313 314 316 318 319 315 317 317 311 309 310 308 307 307 307 308 307 306 304 302 301 299 298 298 298 297 296 294 294 294 294 294 294 295 295 294
302 309 303 305 301 302 304 306 311 312 313 315 315 315 314 313 309 307 308 307 307 308 309 308 307 306 304 303 301 300 299 298 298 297 296 296 296 295 294 294 294 295 294 293
305 304 307 314 296 297 306 303 306 309 311 313 315 314 312 311 311 309 309 307 307 309 309 308 307 306 305 303 302 301 300 298 298 297 297 296 296 295 294 294 295 294 292 292
298 301 300 311 298 308 307 300 303 306 307 310 310 310 308 306 305 304 304 304 305 307 307 308 307 306 305 304 303 302 301 299 298 297 296 296 296 294 294 295 294 292 292 292
298 301 298 309 307 304 303 297 300 301 303 303 306 305 301 298 298 299 300 300 301 303 304 307 308 308 306 305 304 303 301 300 298 297 296 296 294 294 294 294 292 292 292 291
295 297 305 296 306 307 303 297 296 298 303 299 299 299 298 298 302 302 300 302 302 303 302 304 306 306 307 306 304 304 303 301 299 297 296 295 294 294 294 292 292 291 291 289
301 298 305 297 304 304 300 297 296 305 305 297 297 298 297 299 300 300 301 301 302 303 303 305 306 306 306 306 305 304 304 302 299 297 296 294 294 294 293 292 291 291 289 288
302 303 302 296 303 306 295 296 301 302 296 298 298 298 298 299 299 301 300 301 302 302 304 305 305 305 305 305 304 304 303 301 298 296 294 294 294 293 291 291 291 289 288 287
304 303 305 303 306 298 296 297 299 298 298 299 298 299 299 300 300 299 301 301 302 303 304 305 306 305 305 303 304 304 302 299 296 294 294 294 293 291 291 291 289 288 287 287
295 292 301 299 303 298 298 297 299 299 299 299 299 299 300 300 300 300 298 301 301 303 303 304 304 304 303 303 303 302 300 297 294 294 294 294 292 291 290 289 288 287 287 286
297 296 297 299 299 298 300 300 300 300 299 300 301 301 301 300 300 301 299 301 301 302 303 303 304 303 303 301 299 298 296 295 294 294 294 292 291 290 290 288 287 287 286 285
294 298 302 304 302 302 301 302 302 301 301 301 300 300 299 300 300 300 299 300 301 301 302 302 302 302 301 300 298 296 295 294 294 295 293 291 290 290 289 287 287 286 285 284
Wind_Speed
13 8 14 25 21 13 12 12 11 3 2 15 21 18 13 13 13 14 14 16 17 21 21 23 25 25 23 21 19 15 18 17 16 14 12 11 10 9 8 10 12 13 11 12
2 11 14 18 14 17 16 14 7 4 4 7 15 26 20 18 19 21 19 19 21 20 21 28 28 27 26 24 22 18 17 15 15 13 12 11 11 11 12 12 11 11 11 10
8 9 19 12 10 12 9 15 7 6 5 1 5 15 22 16 20 20 22 20 19 23 24 26 29 31 29 27 25 22 18 16 16 13 13 15 12 11 12 11 12 12 9 7
5 9 13 5 10 13 5 8 12 13 6 3 7 4 11 17 18 18 25 25 27 25 25 26 30 29 28 27 27 24 19 17 16 15 16 15 12 12 13 11 11 8 6 6
4 7 12 6 8 6 3 5 11 8 7 5 6 3 5 5 15 21 27 32 33 33 31 31 30 28 26 25 25 24 21 20 19 18 17 14 13 14 11 9 6 6 5 5
4 2 3 3 5 5 11 9 6 4 3 5 11 9 5 8 16 15 21 28 32 30 28 29 29 28 27 27 26 24 22 20 19 16 13 12 11 10 9 7 6 4 3 5
1 3 3 4 6 9 5 11 2 2 3 4 2 9 11 8 10 14 13 22 26 26 30 30 32 31 30 29 27 25 22 21 17 14 12 11 10 9 8 6 4 2 3 6
4 2 5 5 2 3 13 11 5 6 5 3 2 6 6 4 9 8 9 8 15 22 26 31 31 30 30 29 27 24 21 19 17 14 12 11 9 8 6 5 3 3 6 9
6 4 4 3 2 1 3 5 4 5 2 1 5 5 13 5 9 9 5 7 15 20 28 31 31 30 29 28 25 22 21 19 16 13 11 10 8 7 6 5 4 6 9 12
2 6 3 4 3 10 2 5 3 1 6 5 3 4 3 2 5 3 7 12 15 17 23 28 30 31 30 26 25 23 19 17 15 13 11 10 9 8 6 5 5 8 12 16
3 3 1 3 2 4 2 3 3 3 1 2 2 1 1 6 9 11 10 12 15 18 24 28 31 30 28 28 28 26 24 19 16 14 12 12 9 7 5 5 8 11 15 19
2 4 3 1 3 2 2 4 4 3 4 1 2 2 0 6 8 10 12 9 14 18 24 28 30 32 33 32 29 26 22 19 16 14 13 10 8 7 6 7 9 13 17 21
1 2 4 1 2 0 3 4 3 5 2 6 4 3 4 6 6 4 3 5 11 15 19 24 30 33 34 32 31 27 23 19 16 14 12 11 9 7 9 9 11 15 19 23
1 2 1 1 2 4 5 6 9 5 4 4 7 9 8 9 5 3 3 6 10 15 22 28 33 36 34 34 30 27 24 21 17 14 13 11 10 10 10 12 14 18 22 24
1 2 1 3 4 2 1 4 12 11 14 8 7 15 20 13 6 3 5 8 12 17 25 31 35 39 38 34 32 28 24 22 19 16 13 11 11 11 12 13 16 20 22 24
2 1 2 4 6 5 4 9 10 15 15 21 15 22 15 18 12 6 7 13 19 25 32 36 38 39 39 37 34 30 26 23 20 17 15 12 12 12 12 14 17 20 22 24
3 4 2 0 4 4 7 12 17 9 11 14 11 12 10 9 8 10 13 18 20 24 30 39 42 42 41 39 35 31 27 23 21 18 16 14 13 12 12 15 18 20 21 24
4 4 2 1 0 4 2 1 4 15 12 17 12 14 10 13 18 22 22 20 21 23 27 34 41 42 41 38 34 30 26 23 21 20 18 15 12 11 12 16 17 19 21 22
2 4 3 3 3 6 3 5 7 8 4 13 19 15 11 11 13 10 1 9 22 27 26 23 30 40 43 41 37 32 27 24 22 21 18 14 11 11 13 15 16 18 19 18
4 6 1 2 3 4 2 3 6 3 3 7 7 2 3 6 3 1 11 13 9 12 24 19 19 25 35 41 37 32 29 26 23 20 15 13 10 10 12 13 15 16 15 15
4 2 6 3 3 8 7 5 8 3 2 10 6 3 1 2 5 13 12 13 11 7 13 15 15 18 21 28 37 35 30 26 22 18 15 10 8 10 11 12 13 13 11 12
8 8 5 4 3 9 10 7 6 2 9 9 7 3 1 6 10 6 8 11 7 3 12 12 13 16 19 25 35 34 30 26 22 17 12 8 8 9 9 10 9 8 8 11
5 5 5 8 5 1 19 4 11 8 8 5 5 4 6 11 9 9 6 9 4 8 15 15 16 20 23 29 33 33 30 24 19 14 9 8 7 6 7 6 5 6 9 11
5 5 2 1 3 9 16 24 12 13 11 7 10 14 14 13 10 7 7 4 4 7 12 16 19 24 30 32 31 26 24 20 15 10 8 7 5 4 3 3 3 6 8 11
2 11 6 5 9 8 17 20 24 20 18 15 12 11 7 6 4 4 3 1 2 4 10 15 20 25 29 30 27 23 20 16 12 9 8 7 4 3 1 2 5 6 10 12
9 7 6 6 12 5 3 7 11 11 8 6 3 5 2 3 6 3 1 1 4 6 11 18 22 25 26 27 25 22 18 14 11 9 9 7 5 3 3 4 5 9 11 11
Wind_Direction
181 282 264 169 179 172 155 144 145 124 214 204 222 226 212 196 205 209 211 205 205 211 210 212 215 215 218 221 223 239 226 227 230 236 238 251 257 260 273 285 285 292 313 319
341 255 305 162 153 154 150 154 137 93 144 188 220 229 225 226 225 221 219 215 213 212 213 214 215 219 221 225 227 231 224 226 232 232 238 250 250 260 269 264 279 299 305 314
214 262 314 149 143 143 158 164 156 142 125 155 215 229 230 225 224 223 226 225 219 214 213 214 214 217 219 223 228 225 223 228 228 232 249 253 241 240 252 268 278 291 305 320
246 276 276 197 164 158 141 192 160 133 155 221 217 275 228 228 220 217 217 220 222 216 212 215 213 211 212 219 218 216 217 227 236 244 247 248 239 238 248 263 270 278 297 317
159 215 212 268 145 108 97 133 135 156 178 188 176 251 239 231 243 236 221 218 221 222 216 211 210 209 208 207 208 211 220 229 235 244 245 239 236 242 248 249 247 269 297 326
161 226 17 356 77 108 129 86 63 79 120 237 190 200 241 199 229 241 231 226 223 217 214 209 205 203 202 204 205 211 217 226 235 235 229 226 228 229 225 221 238 258 305 339
147 34 13 355 111 150 168 126 113 144 201 231 49 202 249 225 229 232 243 232 223 213 209 204 202 199 200 205 205 209 217 227 227 211 209 210 207 204 208 219 207 224 304 320
134 162 349 348 1 177 166 175 175 184 199 159 97 227 247 239 277 276 259 240 209 208 201 201 199 200 201 203 204 208 214 212 199 200 202 198 199 204 200 192 205 268 306 319
165 120 289 38 57 27 190 199 24 100 45 148 193 232 275 279 259 249 251 198 200 201 201 202 199 200 199 198 198 202 195 193 198 199 195 198 200 189 191 206 254 299 315 320
153 105 18 322 245 36 69 120 104 335 165 221 194 260 243 12 330 289 239 226 205 196 196 195 196 195 196 193 191 183 191 199 198 195 197 192 190 193 209 246 290 307 313 316
100 69 125 269 1 160 84 119 70 105 256 250 283 181 272 296 302 290 272 235 212 197 191 193 195 196 192 187 181 190 194 194 193 193 193 194 194 207 232 270 292 306 314 320
23 101 111 147 240 266 93 149 169 175 184 246 324 268 177 303 306 298 286 245 207 201 193 194 194 191 186 186 187 190 191 189 191 192 194 194 212 227 253 277 297 311 319 321
82 113 122 129 191 63 192 187 159 90 37 195 180 183 186 238 305 327 295 202 190 187 185 188 191 188 188 189 192 191 189 188 192 195 197 213 223 241 263 283 304 313 317 318
106 99 356 114 74 129 182 181 184 176 173 166 229 270 237 233 263 280 218 192 192 193 192 193 192 191 193 196 194 192 190 193 196 196 208 216 229 251 272 290 306 315 316 319
108 119 154 93 54 43 342 199 190 205 218 222 253 236 248 270 252 222 196 183 191 195 198 199 196 196 199 198 197 196 197 201 200 204 208 217 238 260 276 296 310 315 317 323
355 95 35 33 31 21 302 252 215 226 238 247 261 277 272 270 268 254 205 199 203 207 207 206 205 204 203 202 200 199 200 205 205 210 214 228 249 265 285 302 310 313 319 325
109 131 116 274 11 346 280 230 206 203 204 225 222 239 280 290 276 268 250 235 233 234 221 213 212 212 210 206 203 201 202 204 210 213 221 236 252 271 290 303 310 315 323 329
126 100 32 120 118 226 251 185 202 222 238 220 249 255 269 284 281 275 272 268 268 262 247 230 222 219 217 214 209 205 203 206 211 215 224 236 252 272 294 305 311 321 328 335
358 129 117 177 212 313 244 196 192 187 244 215 234 267 292 309 304 296 353 266 256 255 258 255 242 230 223 217 211 206 202 206 209 216 223 235 252 276 296 308 317 327 333 342
62 54 133 146 211 236 248 189 196 189 270 163 168 205 302 329 311 81 338 343 323 272 237 240 239 231 229 222 213 205 205 206 210 214 221 235 254 283 301 314 325 331 342 356
142 71 191 161 223 281 231 167 160 161 244 161 166 190 225 293 277 288 315 330 322 293 216 213 212 216 220 216 208 203 203 206 207 210 219 230 261 289 306 317 329 340 354 14
168 158 177 129 185 258 149 117 205 155 141 163 177 188 284 330 355 347 345 351 334 209 172 184 191 192 194 197 197 196 198 200 201 206 213 237 269 291 310 323 338 358 18 31
210 194 179 203 211 30 192 187 202 180 155 177 208 243 300 310 323 353 325 359 22 157 154 163 175 180 177 179 187 191 192 194 196 199 216 245 268 292 310 332 358 27 42 47
228 178 212 185 235 233 242 225 207 221 237 258 272 284 288 291 293 295 334 283 32 162 165 164 167 167 165 174 180 190 186 187 190 202 221 241 256 288 316 344 48 59 55 63
133 151 167 265 274 254 257 238 241 249 258 270 280 275 270 276 278 253 334 249 188 150 167 166 168 167 168 170 173 178 184 186 192 201 220 225 238 262 246 105 86 77 76 72
189 170 182 213 229 231 201 189 215 221 233 215 226 139 130 112 80 97 2 104 179 185 173 170 174 176 174 174 178 179 182 189 195 205 209 214 215 198 177 145 115 100 94 81